Calgary Springbank, Alberta

1:21 PM MST on February 10, 2016 (GMT -0700)
Springbank

Weather History for CYBW - October, 2012

Change the Weather History Date:

Monday, October 22, 2012

  Actual Average Record
Temperature  
Mean Temperature 22 °F -  
Max Temperature 24 °F 38 °F - (-1)
Min Temperature 20 °F 17 °F - (-1)
Degree Days  
Heating Degree Days 43    
Moisture  
Dew Point 20 °F    
Average Humidity 90    
Maximum Humidity 100    
Minimum Humidity 85    
Precipitation  
Precipitation 0.01 in - - ()
Sea Level Pressure  
Sea Level Pressure 30.09 in    
Wind  
Wind Speed 5 mph ()    
Max Wind Speed 9 mph    
Max Gust Speed -    
Visibility 6.5 miles    
Events Snow    
Averages and records for this station are not official NWS values.
T = Trace of Precipitation, MM = Missing Value Source: Averaged Metar Reports

Daily Weather History Graph

Daily Weather History Graph

Search for Another Location

Airport or City:

Trip Planner

Search our weather history database for the weather conditions in past years. The results will help you decide how hot, cold, wet, or windy it might be!

Date:

Astronomy

Oct. 22, 2012 Rise Set
Actual Time 8:13 AM MDT 6:29 PM MDT
Civil Twilight 7:39 AM MDT 7:02 PM MDT
Nautical Twilight 7:01 AM MDT 7:41 PM MDT
Astronomical Twilight 6:22 AM MDT 8:19 PM MDT
Moon 3:20 PM MDT (10/22) 12:19 AM MDT (10/22)
Length of Visible Light 11h 23m
Length of Day
10h 15m
First Quarter, 57% of the Moon is Illuminated
Oct 22
First Quarter
Oct 29
Full
Nov 6
Last Quarter
Nov 13
New
Nov 20
First Quarter

Hourly Weather History & Observations

Time (MDT) Temp. Windchill Dew Point Humidity Pressure Visibility Wind Dir Wind Speed Gust Speed Precip Events Conditions
5:00 AM 23.0 °F 17.0 °F 19.4 °F 86% 30.11 in 10.0 mi ENE 4.6 mph - N/A   Overcast
5:23 AM 23.0 °F 17.0 °F 21.2 °F 93% 30.11 in 12.0 mi ENE 4.6 mph - N/A   Overcast
6:00 AM 22 °F - 20 °F 90% 30.12 in 12 mi ENE 5.8 mph - -   Partly Cloudy
6:00 AM 21.2 °F 13.6 °F 21.2 °F 100% 30.12 in 12.0 mi ENE 5.8 mph - N/A   Overcast
7:00 AM 21.2 °F 16.4 °F 19.4 °F 93% 30.12 in 12.0 mi East 3.5 mph - N/A   Overcast
8:00 AM 21.2 °F 13.6 °F 19.4 °F 93% 30.12 in 3.0 mi ESE 5.8 mph - N/A   Overcast
8:13 AM 21.2 °F 12.6 °F 19.4 °F 93% 30.12 in 3.0 mi ENE 6.9 mph - N/A   Light Freezing Drizzle
9:00 AM 21.2 °F 10.9 °F 17.6 °F 86% 30.12 in 4.0 mi ENE 9.2 mph - N/A   Light Freezing Drizzle
9:45 AM 21.2 °F 11.7 °F 17.6 °F 86% 30.12 in 4.0 mi ENE 8.1 mph - N/A Snow Light Snow Grains
10:00 AM 21.2 °F 12.6 °F 19.4 °F 93% 30.12 in 5.0 mi East 6.9 mph - N/A Snow Light Snow Grains
11:00 AM 21.2 °F 13.6 °F 19.4 °F 93% 30.11 in 4.0 mi ESE 5.8 mph - N/A Snow Light Snow Grains
12:00 PM 23 °F - 20 °F 85% 30.09 in 4 mi East 5.8 mph - - Snow Snow Grains
12:00 PM 23.0 °F 14.7 °F 21.2 °F 93% 30.09 in 4.0 mi East 6.9 mph - N/A Snow Light Snow Grains
1:00 PM 23.0 °F 15.8 °F 21.2 °F 93% 30.10 in 5.0 mi ESE 5.8 mph - N/A Snow Light Snow Grains
2:00 PM 23.0 °F 15.8 °F 21.2 °F 93% 30.07 in 5.0 mi South 5.8 mph - N/A Snow Light Snow Grains
3:00 PM 23.0 °F 17.0 °F 21.2 °F 93% 30.04 in 5.0 mi ESE 4.6 mph - N/A Snow Light Snow Grains
3:15 PM 24.8 °F 17.9 °F 21.2 °F 86% 30.05 in 6.0 mi SE 5.8 mph - N/A Snow Light Snow Grains
4:00 PM 23.0 °F 15.8 °F 19.4 °F 86% 30.06 in 6.0 mi East 5.8 mph - N/A Snow Light Snow Grains
5:00 PM 23.0 °F 17.0 °F 19.4 °F 86% 30.06 in 12.0 mi South 4.6 mph - N/A   Overcast
6:19 PM 23.0 °F 13.1 °F 19.4 °F 86% 30.05 in 7.0 mi NE 9.2 mph - N/A   Overcast
7:00 PM 23.0 °F 14.7 °F 19.4 °F 86% 30.04 in 7.0 mi NNE 6.9 mph - N/A   Overcast
7:25 PM 23.0 °F 14.7 °F 19.4 °F 86% 30.05 in 7.0 mi NE 6.9 mph - N/A Snow Light Snow
8:00 PM 23.0 °F 15.8 °F 19.4 °F 86% 30.05 in 7.0 mi ENE 5.8 mph - N/A Snow Light Snow
9:00 PM 21.2 °F 12.6 °F 19.4 °F 93% 30.06 in 3.0 mi ENE 6.9 mph - N/A Snow Light Snow
10:00 PM 21.2 °F 12.6 °F 19.4 °F 93% 30.06 in 3.0 mi NE 6.9 mph - N/A Snow Light Snow